Weather Service Report


660 
ASUS45 KREV 281210
RWRNV 
NEVADA REGIONAL WEATHER ROUNDUP
NATIONAL WEATHER SERVICE RENO NV
500 AM PDT SUN MAY 28 2017

NOTE: "FAIR" INDICATES FEW OR NO CLOUDS BELOW 12,000 FEET WITH NO
SIGNIFICANT WEATHER AND/OR OBSTRUCTIONS TO VISIBILITY.

NVZ001-003-004-281300-
WESTERN NEVADA
  
CITY           SKY/WX    TMP DP  RH WIND       PRES   REMARKS
RENO           CLEAR     50  31  48 CALM      30.19R                  
6HR MIN TEMP:  50; 6HR MAX TEMP:  64;                                

CARSON CITY    FAIR      41  32  70 CALM      30.21R                  
MINDEN         FAIR      36  28  75 CALM      30.21R                  
FALLON         CLEAR     48  28  46 SW3       30.14R                  
6HR MIN TEMP:  48; 6HR MAX TEMP:  61;                                

LOVELOCK       CLEAR     49  27  42 NE3       30.15R                  
6HR MIN TEMP:  45; 6HR MAX TEMP:  62;                                

HAWTHORNE      CLEAR     54  28  37 SW6       30.16R                  
$$

NVZ002-CAZ072-073-281300-
NORTHERN AND CENTRAL SIERRA
  
CITY           SKY/WX    TMP DP  RH WIND       PRES   REMARKS
S. LAKE TAHOE  CLEAR     35  28  75 CALM      30.26S                  
6HR MIN TEMP:  35; 6HR MAX TEMP:  47;                                

TRUCKEE        CLEAR     32  30  93 CALM      30.27R                  
SQUAW VLY 8000   N/A     37  27  65 S1          N/A                   
SUSANVILLE     CLEAR     39  32  75 CALM      30.17                   
MAMMOTH LAKES  FAIR      42  19  39 W9        30.30S                  
6HR MIN TEMP:  40; 6HR MAX TEMP:  48;                                

BRIDGEPORT     FAIR      33  22  63 CALM      30.29R                  
$$

NVZ030-031-036-281300-
NORTHERN NEVADA
  
CITY           SKY/WX    TMP DP  RH WIND       PRES   REMARKS
ELKO           CLEAR     41  33  73 CALM      30.25R                  
6HR MIN TEMP:  40; 6HR MAX TEMP:  55;                                

WINNEMUCCA     CLEAR     46  33  60 SE6       30.19R                  
6HR MIN TEMP:  41; 6HR MAX TEMP:  57;                                

WENDOVER       PTCLDY    51  33  50 CALM      30.23R                  
$$

NVZ035-037-281300-
CENTRAL NEVADA
  
CITY           SKY/WX    TMP DP  RH WIND       PRES   REMARKS
ELY            CLEAR     32  22  66 S8        30.30S                  
6HR MIN TEMP:  32; 6HR MAX TEMP:  50;                                

EUREKA           N/A     35  25  66 CALM      30.26S                  
6HR MIN TEMP:  34; 6HR MAX TEMP:  47;                                

$$

NVZ013-014-281300-
SOUTH CENTRAL NEVADA
  
CITY           SKY/WX    TMP DP  RH WIND       PRES   REMARKS
TONOPAH        CLEAR     52  21  29 N12       30.21R                  
6HR MIN TEMP:  51; 6HR MAX TEMP:  56;                                

$$

NVZ017-020-022-281300-
SOUTHERN NEVADA
  
CITY           SKY/WX    TMP DP  RH WIND       PRES   REMARKS
LAS VEGAS      CLEAR     74  23  15 SW5       30.00R                  
6HR MIN TEMP:  74; 6HR MAX TEMP:  84;                                

N. LAS VEGAS   CLEAR     71  27  19 NW6       30.00R                  
6HR MIN TEMP:  71; 6HR MAX TEMP:  81;                                

NELLIS AFB     CLEAR     73  28  19 NE15      29.99R                  
6HR MIN TEMP:  73; 6HR MAX TEMP:  82;                                

HENDERSON      CLEAR     66  28  24 SE3       30.04R                  
6HR MIN TEMP:  66; 6HR MAX TEMP:  77;                                

MERCURY        CLEAR     66  23  19 NE14      30.07R                  
6HR MIN TEMP:  63; 6HR MAX TEMP:  69;                                

$$
  

Return to Home page


Western Regional Climate Center, wrcc@dri.edu